SL-14 R/B

Satellite information

Favourite Embed

Satellite Type and Status

ROCKET BODYIN ORBIT

Key statistics

Satellite SL-14 R/B at a glance.

Uptime

14144

Days in orbit

Revolutions

≈ 13.8

Per day

Orbit

LEO

Low Earth Orbit

Inclination

82.5

Latest

Satellite identification and parameters

Extended collection of information and parameters for SL-14 R/B.

Object identification

Identified? True

Debris? False

Object name: SL-14 R/B

International designator: 1986-101B

Object number (NORAD): 17242

Object ID (CCSDS): 17242

Country: COMMONWEALTH OF INDEPENDENT STATES (CIS)

Current information (Y/N): Y

RCS size: LARGE

Orbital parameters

Period: 104.093 minutes

Inclination: 82.5337 deg

SMA: 7330.057 km

Apoapsis: 962.016 km

Periapsis: 941.829 km

RAAN: 154.6972 deg

Eccentricy: 0.00137695

Argument of periapsis: 271.252 deg

Mean anomaly: 156.2733 deg

Mean motion: 13.8338064 rev/day

Mean motion (dot): 0.00000042 rev/day2

B* drag term: 0.000024802877 1/REarth

Two-line elements (TLE)

Creation date: Sept. 8, 2025, 3:16 a.m.

Reference frame: TEME

Reference center: EARTH

Epoch: Sept. 7, 2025, 8:28 p.m. UTC

TLE line 0: 0 SL-14 R/B

TLE line 1: 1 17242U 86101B 25250.85316595 .00000042 00000-0 24803-4 0 9995

TLE line 2: 2 17242 82.5337 154.6972 0013770 271.2520 156.2733 13.83380640954862

Live tracking on map

Real-time ground track for satellite SL-14 R/B.

In-orbit conjunctions

A list of the most updated potential collisions computed for object SL-14 R/B.

Target Orbit TCA Probability of collision Miss distance Type
SL-8 R/B LEO 2025-08-01 02:32:19 0.0001047618 48.0 (m) ROCKET BODY
DELTA 1 DEB SSO 2024-06-22 04:57:00 0.0001105986 502.0 (m) DEBRIS

Associated space launch

Ionospheric research satellite

SL-14 R/B was lifted into orbit during the mission ‘Tsiklon-3 | Ionozond-E’, on board a Tsiklon-3 space rocket.

The launch took place on Dec. 18, 1986, 8 a.m. from 32/2.

For more information about the launch, click the button.

Launch to space Tsiklon-3 | Ionozond-E
Tsiklon-3 | Ionozond-E

Agency: N/A

Status: Launch Successful

Launch date: Dec. 18, 1986, 8 a.m. UTC

Rocket: Tsiklon-3

Launch pad: 32/2

Location: Plesetsk Cosmodrome, Russian Federation

...

Latest news about this satellite

There are no fresh news available about this satellite. Check back as we update our databases every day.


Newsletter sign-up

Weekly statistics, charts and insights to help you stay on top of the space industry.